Location: Krakow
(50.0830°N, 19.9170°E)
Time: 18:10:03
(UTC+01:00)

Vanguard 1 Rocket - Pass Details

Date: 17 December 2023
Orbit: 653 x 4219 km, 34.3° (Epoch: 29 February)

Event Time Altitude Azimuth Distance (km) Brightness Sun altitude
Rises 08:28:19 0° 279° (W) 7,697 11.6 5.6°
Reaches altitude 10° 08:37:14 10° 262° (W) 5,922 11.3 6.6°
Maximum altitude 08:45:08 15° 234° (SW) 4,651 11.0 7.4°
Drops below altitude 10° 08:51:12 10° 203° (SSW) 4,330 11.3 8.0°
Sets 08:55:57 0° 181° (S) 4,701 12.0 8.4°
